DateTimeUTC,F1_A11,F1_S11,BsB_S11,BsG_S11,BsR_S11,BbsB_S11,BbsG_S11,BbsR_S11,BaB_A11,BaG_A11,BaR_A11,T_S11,U_S11,P_S11,T1_A11
2020-01-27T00:00:00Z,00000380,21000600,,,,,,,,,,23.5,00.0,0620.3,30.9
2020-01-27T00:01:00Z,00000380,21000600,,,,,,,,,,23.6,00.0,0620.4,30.9
2020-01-27T00:02:00Z,00000380,21000600,,,,,,,,,,23.6,00.0,0620.4,30.9
2020-01-27T00:03:00Z,00000380,61000600,,,,,,,,,,23.6,00.0,0620.4,30.9
2020-01-27T00:04:00Z,00000380,41000600,0000.46,0000.84,0000.32,0000.29,-000.22,-000.27,-000.06,0000.22,0000.03,23.4,00.0,0621.3,30.9
2020-01-27T00:05:00Z,00000380,01000600,0000.02,0000.04,-000.06,0000.94,0000.14,-000.21,0000.10,-000.18,0000.09,23.4,00.0,0621.4,30.9
2020-01-27T00:06:00Z,00000380,01000600,0001.28,-000.02,0000.03,0000.64,-000.37,-000.40,-000.16,-000.20,-000.07,23.4,00.0,0621.4,30.9
2020-01-27T00:07:00Z,00000380,01000600,0000.33,-000.32,0000.20,0001.43,-000.39,-000.57,0000.09,0000.05,0000.03,23.4,00.0,0621.4,30.9
2020-01-27T00:08:00Z,00000380,01000600,0000.27,0000.21,-000.18,0000.41,0000.11,-000.05,0000.03,0000.22,0000.06,23.4,00.0,0621.4,30.9
2020-01-27T00:09:00Z,00000380,01000600,0000.62,0000.22,-000.02,0000.08,0000.48,-000.33,0000.06,0000.00,0000.09,23.4,00.0,0621.4,30.9
2020-01-27T00:10:00Z,00000380,01000600,0000.91,0000.25,-000.07,0000.47,-000.11,0000.34,0000.12,0000.00,-000.19,23.4,00.0,0621.4,30.9
2020-01-27T00:11:00Z,00000380,01000600,0001.21,0000.57,0000.39,0000.45,-000.40,-000.30,-000.18,0000.05,0000.12,23.4,00.0,0621.4,30.9
2020-01-27T00:12:00Z,00000380,01000600,0001.43,0000.59,0000.10,0000.06,0000.13,0000.03,0000.16,-000.10,0000.01,23.4,00.0,0621.4,30.9
2020-01-27T00:13:00Z,00000380,01000600,0000.52,0000.35,0000.06,0000.18,-000.14,-000.05,-000.05,0000.10,0000.03,23.4,00.0,0621.4,30.9
2020-01-27T00:14:00Z,00000380,01000600,0000.23,0000.99,0000.53,-000.53,-000.41,-000.13,-000.14,-000.12,-000.05,23.4,00.0,0621.4,30.9
2020-01-27T00:15:00Z,00000380,01000600,0001.19,0000.16,-000.22,-000.52,0000.16,-000.65,-000.01,-000.01,-000.04,23.4,00.0,0621.4,30.9
2020-01-27T00:16:00Z,00000380,01000600,0000.42,0000.32,-000.24,-000.38,0000.27,-000.10,0000.04,0000.02,-000.02,23.4,00.0,0621.4,30.9
2020-01-27T00:17:00Z,00000380,01000600,0000.11,-000.13,-000.16,-000.05,-000.08,0000.47,0000.06,0000.06,0000.14,23.4,00.0,0621.4,30.9
2020-01-27T00:18:00Z,00000380,01000600,0001.52,0000.93,-000.23,0001.33,-000.20,0000.00,-000.05,-000.02,-000.06,23.3,00.0,0621.4,30.9
2020-01-27T00:19:00Z,00000380,01000600,0000.80,-000.13,-000.02,0000.33,-000.37,0000.28,-000.00,-000.16,-000.05,23.3,00.0,0621.4,30.9
2020-01-27T00:20:00Z,00000380,01000600,0001.17,0000.66,-000.08,-000.18,0000.26,-000.45,-000.08,0000.05,-000.02,23.3,00.0,0621.4,30.9
2020-01-27T00:21:00Z,00000380,01000600,0000.64,0000.13,-000.04,0001.08,-000.41,-000.89,-000.16,-000.18,-000.02,23.3,00.0,0621.4,30.9
2020-01-27T00:22:00Z,00000380,01000600,0000.23,-000.11,-000.16,-000.73,-000.12,-000.11,0000.17,0000.02,0000.07,23.3,00.0,0621.4,30.9
2020-01-27T00:23:00Z,00000380,01000600,0000.70,-000.10,-000.04,0000.52,0000.25,0000.01,0000.01,0000.11,0000.01,23.3,00.0,0621.4,30.9
2020-01-27T00:24:00Z,00000380,01000600,0001.19,0000.39,-000.38,-000.07,0000.16,-000.19,0000.10,0000.30,0000.11,23.3,00.0,0621.4,30.9
2020-01-27T00:25:00Z,00000380,01000600,0001.05,0000.04,0000.15,0000.36,-000.01,0000.23,-000.06,-000.23,0000.01,23.3,00.0,0621.4,30.9
2020-01-27T00:26:00Z,00000380,01000600,-000.04,0000.78,0000.04,0000.90,0000.19,-000.08,0000.05,0000.09,-000.08,23.4,00.0,0621.4,30.9
2020-01-27T00:27:00Z,00000380,01000600,-000.98,-000.04,-000.36,0000.04,-000.15,-000.10,-000.05,0000.03,0000.15,23.4,00.0,0621.4,30.9
2020-01-27T00:28:00Z,00000380,01000600,0001.64,0000.15,0000.19,0000.99,-000.27,0000.05,0000.05,0000.11,-000.11,23.3,00.0,0621.4,30.9
2020-01-27T00:29:00Z,00000380,01000600,0000.04,0000.70,0000.51,0000.12,0000.14,-000.15,0000.10,-000.02,0000.01,23.3,00.0,0621.4,30.9
2020-01-27T00:30:00Z,00000380,01000600,-000.25,-000.19,-000.16,0001.70,0000.17,0000.07,0000.05,0000.07,0000.05,23.3,00.0,0621.4,30.9
2020-01-27T00:31:00Z,00000380,01000600,0000.58,0000.29,-000.01,0000.42,-000.04,-000.07,-000.17,-000.12,0000.04,23.3,00.0,0621.4,30.9
2020-01-27T00:32:00Z,00000380,01000600,-000.52,0000.01,0000.36,0000.87,-000.08,-000.52,0000.03,0000.02,-000.06,23.3,00.0,0621.4,30.9
2020-01-27T00:33:00Z,00000380,01000600,-000.59,0000.63,0000.20,-000.11,-000.34,-000.20,0000.10,-000.07,0000.04,23.3,00.0,0621.4,30.9
2020-01-27T00:34:00Z,00000380,01000600,-000.65,0000.14,0000.09,0000.23,0000.02,-000.06,-000.12,-000.03,-000.03,23.3,00.0,0621.4,30.9
2020-01-27T00:35:00Z,00000380,01000600,0001.54,0000.02,-000.09,0000.38,-000.05,0000.03,-000.04,0000.06,0000.04,23.3,00.0,0621.4,30.9
2020-01-27T00:36:00Z,00000380,01000600,0000.46,0000.20,0000.22,0001.32,0000.13,0000.04,0000.07,-000.12,-000.14,23.3,00.0,0621.4,30.9
2020-01-27T00:37:00Z,00000380,01000600,0000.56,-000.19,0000.43,0000.36,0000.25,-000.21,-000.02,-000.05,0000.14,23.3,00.0,0621.4,30.9
2020-01-27T00:38:00Z,00000380,01000600,0000.42,-000.22,-000.30,-000.85,0000.20,-000.50,0000.11,-000.08,-000.14,23.3,00.0,0621.4,30.9
2020-01-27T00:39:00Z,00000380,01000600,0001.61,-000.42,-000.19,0001.30,0000.19,-000.10,-000.07,0000.31,0000.11,23.3,00.0,0621.4,30.9
2020-01-27T00:40:00Z,00000380,01000600,0001.00,0000.29,0000.66,-000.88,0000.41,-000.48,0000.04,-000.19,0000.01,23.3,00.0,0621.4,30.9
2020-01-27T00:41:00Z,00000380,01000600,0000.22,0000.62,0000.66,-000.03,-000.43,-000.25,0000.05,0000.15,0000.00,23.3,00.0,0621.4,30.9
2020-01-27T00:42:00Z,00000380,01000600,-000.08,-000.25,-000.01,0000.12,-000.13,-000.39,0000.04,0000.12,0000.05,23.3,00.0,0621.4,30.9
2020-01-27T00:43:00Z,00000380,01000600,0000.22,0000.11,-000.36,0000.31,-000.13,-000.14,-000.17,-000.00,-000.18,23.3,00.0,0621.4,30.9
2020-01-27T00:44:00Z,00000380,01000600,0000.13,0000.18,-000.06,0000.51,0000.28,-000.33,0000.10,-000.08,0000.20,23.3,00.0,0621.3,30.9
2020-01-27T00:45:00Z,00000380,01000600,0000.57,0000.00,-000.18,0000.01,-000.16,-000.41,0000.00,0000.15,0000.06,23.3,00.0,0621.3,30.9
2020-01-27T00:46:00Z,00000380,01000600,0000.34,0000.36,0000.07,0000.34,0000.01,-000.48,0000.09,0000.04,-000.03,23.3,00.0,0621.3,30.9
2020-01-27T00:47:00Z,00000380,01000600,0001.16,-000.43,0000.42,0000.14,0000.21,-000.16,-000.04,-000.14,0000.03,23.3,00.0,0621.3,30.9
2020-01-27T00:48:00Z,00000380,01000600,-000.90,0000.53,-000.42,0000.62,-000.29,-000.41,0000.02,0000.07,0000.01,23.3,00.0,0621.3,30.9
2020-01-27T00:49:00Z,00000380,01000600,0000.30,0000.67,-000.19,0001.02,-000.32,-000.17,-000.01,-000.03,0000.04,23.3,00.0,0621.3,30.9
2020-01-27T00:50:00Z,00000380,01000600,0000.15,0000.47,0000.43,-000.53,0000.09,-000.08,0000.02,-000.04,-000.09,23.3,00.0,0621.2,30.9
2020-01-27T00:51:00Z,00000380,01000600,0000.23,-000.16,0000.10,-000.35,-000.29,-000.07,0000.01,0000.02,-000.08,23.3,00.0,0621.2,30.9
2020-01-27T00:52:00Z,00000380,01000600,0000.26,0000.27,-000.01,0000.70,0000.33,-000.39,0000.13,-000.18,-000.00,23.3,00.0,0621.2,30.9
2020-01-27T00:53:00Z,00000380,01000600,0001.03,-000.05,-000.42,0000.40,-000.08,-000.31,-000.00,0000.30,0000.26,23.3,00.0,0621.2,30.9
2020-01-27T00:54:00Z,00000380,01000600,0000.17,0000.17,0000.38,0001.07,0000.18,-000.18,0000.05,0000.21,0000.04,23.3,00.0,0621.2,30.9
2020-01-27T00:55:00Z,00000380,01000600,-000.16,0000.00,0000.73,0000.80,-000.43,-000.50,0000.00,-000.04,0000.05,23.3,00.0,0621.2,30.9
2020-01-27T00:56:00Z,00000380,01000600,0000.49,-000.18,-000.43,-000.57,-000.76,-000.37,0000.19,0000.14,-000.01,23.3,00.0,0621.2,30.9
2020-01-27T00:57:00Z,00000380,41000600,,,,,,,,,,23.4,00.0,0621.2,30.9
2020-01-27T00:58:00Z,00000380,61000600,,,,,,,,,,23.4,00.0,0620.2,30.9
2020-01-27T00:59:00Z,00000380,21000600,,,,,,,,,,23.5,00.0,0620.2,30.9
2020-01-27T01:00:00Z,00000380,21000600,,,,,,,,,,23.6,00.0,0620.2,30.9
2020-01-27T01:01:00Z,00000380,21000600,,,,,,,,,,23.6,00.0,0620.2,30.9
2020-01-27T01:02:00Z,00000380,21000600,,,,,,,,,,23.6,00.0,0620.2,30.9
2020-01-27T01:03:00Z,00000380,61000600,,,,,,,,,,23.6,00.0,0620.2,30.9
2020-01-27T01:04:00Z,00000380,41000600,-000.60,0000.23,-000.05,0000.22,0000.68,-000.22,-000.07,-000.23,0000.02,23.4,00.0,0621.1,30.9
2020-01-27T01:05:00Z,00000380,01000600,-000.10,0000.22,0000.41,0001.07,-000.15,-000.30,0000.04,0000.14,0000.10,23.3,00.0,0621.2,30.9
2020-01-27T01:06:00Z,00000380,01000600,0001.00,0000.56,0000.51,-000.01,0000.26,0000.02,-000.10,-000.27,0000.02,23.3,00.0,0621.2,30.9
2020-01-27T01:07:00Z,00000380,01000600,0000.63,0000.32,0000.49,0000.30,0000.06,0000.21,0000.07,0000.21,-000.07,23.3,00.0,0621.2,30.9
2020-01-27T01:08:00Z,00000380,01000600,0000.43,0000.07,0000.36,0000.02,0000.23,0000.16,0000.08,-000.01,0000.07,23.3,00.0,0621.2,30.9
2020-01-27T01:09:00Z,00000380,01000600,0000.18,0000.10,0000.79,-000.54,-000.04,0000.47,0000.10,0000.04,-000.16,23.3,00.0,0621.2,30.9
2020-01-27T01:10:00Z,00000380,01000600,0000.65,0000.51,0000.46,0000.66,0000.22,0000.30,-000.13,-000.13,0000.05,23.3,00.0,0621.2,30.9
2020-01-27T01:11:00Z,00000380,01000600,0000.36,0000.49,0000.22,0001.02,0000.23,0000.11,0000.02,0000.06,0000.04,23.3,00.0,0621.2,30.9
2020-01-27T01:12:00Z,00000380,01000600,0000.83,0000.06,-000.04,0000.57,0000.71,0000.25,-000.07,0000.00,0000.11,23.3,00.0,0621.2,30.9
2020-01-27T01:13:00Z,00000380,01000600,-001.34,0000.46,0000.32,0000.44,-000.17,0000.32,0000.02,0000.21,-000.05,23.3,00.0,0621.2,30.9
2020-01-27T01:14:00Z,00000380,01000600,0001.30,0000.38,0000.28,-000.52,0000.62,0000.24,-000.03,-000.01,-000.02,23.3,00.0,0621.2,30.9
2020-01-27T01:15:00Z,00000380,01000600,0000.56,-000.04,0000.46,0000.30,0000.28,-000.20,0000.02,0000.09,-000.13,23.3,00.0,0621.2,30.9
2020-01-27T01:16:00Z,00000380,01000600,0000.11,-000.13,0000.19,-000.60,0000.29,-000.06,0000.01,-000.33,0000.06,23.3,00.0,0621.2,30.9
2020-01-27T01:17:00Z,00000380,01000600,0000.78,0000.48,-000.06,-000.25,0000.37,0000.03,0000.01,0000.14,0000.13,23.2,00.0,0621.2,30.9
2020-01-27T01:18:00Z,00000380,01000600,0001.07,0000.34,0001.06,0000.80,0000.44,-000.03,0000.07,0000.00,-000.19,23.2,00.0,0621.2,30.9
2020-01-27T01:19:00Z,00000380,01000600,-000.40,0000.04,0001.03,-000.26,0000.34,0000.41,-000.02,-000.12,0000.07,23.2,00.0,0621.2,30.9
2020-01-27T01:20:00Z,00000380,01000600,0000.64,-000.21,-000.01,0000.73,0000.17,0000.36,-000.16,0000.05,0000.11,23.2,00.0,0621.2,30.9
2020-01-27T01:21:00Z,00000380,01000600,0000.10,0000.47,-000.33,0000.26,0000.35,0000.40,0000.02,-000.13,-000.10,23.2,00.0,0621.2,30.9
2020-01-27T01:22:00Z,00000380,01000600,0000.44,0000.07,-000.47,-000.19,-000.00,-000.09,-000.00,-000.08,-000.00,23.2,00.0,0621.2,30.9
2020-01-27T01:23:00Z,00000380,01000600,0000.30,0000.08,-000.06,0000.03,0000.14,-000.19,0000.03,0000.11,0000.03,23.2,00.0,0621.2,30.9
2020-01-27T01:24:00Z,00000380,01000600,0000.41,0000.20,0000.01,0001.45,0000.54,0000.21,0000.02,0000.24,-000.02,23.2,00.0,0621.1,30.9
2020-01-27T01:25:00Z,00000380,01000600,-000.00,0000.30,0000.12,0000.25,0000.44,-000.10,-000.08,-000.32,-000.10,23.2,00.0,0621.1,30.9
2020-01-27T01:26:00Z,00000380,01000600,0000.36,-000.13,0000.37,-001.08,-000.03,0000.01,-000.06,0000.20,0000.06,23.3,00.0,0621.1,30.9
2020-01-27T01:27:00Z,00000380,01000600,0000.19,0000.53,0000.13,-000.34,0000.29,0000.14,0000.20,-000.02,0000.04,23.3,00.0,0621.1,30.9
2020-01-27T01:28:00Z,00000380,01000600,-000.47,0000.72,-000.06,0000.40,0000.22,0000.16,-000.07,0000.00,0000.01,23.2,00.0,0621.1,30.9
2020-01-27T01:29:00Z,00000380,01000600,0000.60,0000.64,0000.14,-000.15,0000.15,0000.27,0000.05,0000.05,0000.06,23.2,00.0,0621.1,30.9
2020-01-27T01:30:00Z,00000380,01000600,-000.75,-000.39,0000.75,0000.16,0000.02,0000.29,-000.05,0000.09,0000.06,23.2,00.0,0621.1,30.9
2020-01-27T01:31:00Z,00000380,01000600,0001.06,0000.65,0000.76,0001.12,0000.11,0000.04,0000.19,-000.03,-000.05,23.2,00.0,0621.1,30.9
2020-01-27T01:32:00Z,00000380,01000600,0000.41,0000.03,-000.04,0000.66,0000.29,-000.24,-000.12,0000.07,-000.02,23.2,00.0,0621.1,30.9
2020-01-27T01:33:00Z,00000380,01000600,0001.34,0000.44,0000.50,-000.10,0000.44,0000.04,-000.04,-000.11,-000.02,23.2,00.0,0621.1,30.9
2020-01-27T01:34:00Z,00000380,01000600,0000.78,-000.28,0000.56,0001.00,-000.08,0000.56,0000.01,0000.06,-000.02,23.2,00.0,0621.1,30.9
2020-01-27T01:35:00Z,00000380,01000600,0000.31,0000.44,0000.11,-000.24,-000.13,0000.05,-000.09,-000.11,-000.05,23.2,00.0,0621.1,30.9
2020-01-27T01:36:00Z,00000380,01000600,0000.00,0000.30,0000.38,0000.56,0000.25,0000.08,0000.05,-000.24,0000.03,23.2,00.0,0621.0,30.9
2020-01-27T01:37:00Z,00000380,01000600,-000.39,0000.09,-000.03,0000.44,0000.39,0000.51,0000.13,0000.20,0000.13,23.2,00.0,0621.0,30.9
2020-01-27T01:38:00Z,00000380,01000600,0000.11,0000.10,-000.27,0001.40,-000.30,-000.43,-000.11,-000.01,-000.11,23.2,00.0,0621.1,30.9
2020-01-27T01:39:00Z,00000380,01000600,0000.74,-000.24,0000.99,-000.37,0000.27,0000.19,0000.11,0000.03,-000.03,23.2,00.0,0621.1,30.9
2020-01-27T01:40:00Z,00000380,01000600,0000.22,0000.27,0000.26,-000.08,-000.38,0000.10,0000.06,0000.15,0000.14,23.2,00.0,0621.1,30.9
2020-01-27T01:41:00Z,00000380,01000600,0001.16,-000.34,0000.27,0000.72,0000.00,0000.04,-000.15,-000.16,0000.03,23.2,00.0,0621.1,30.9
2020-01-27T01:42:00Z,00000380,01000600,0000.72,0000.40,0000.05,0001.01,0000.13,0000.29,0000.01,0000.16,-000.03,23.2,00.0,0621.1,30.9
2020-01-27T01:43:00Z,00000380,01000600,0000.51,0000.19,-000.32,0000.55,0000.20,0000.07,0000.12,-000.03,0000.09,23.2,00.0,0621.1,30.9
2020-01-27T01:44:00Z,00000380,01000600,-001.00,0000.07,0000.36,0000.03,0000.52,0000.24,-000.03,0000.12,-000.12,23.2,00.0,0621.1,30.9
2020-01-27T01:45:00Z,00000380,01000600,0000.27,0000.08,0000.00,-000.16,0000.40,-000.16,0000.05,-000.04,0000.04,23.2,00.0,0621.1,30.9
2020-01-27T01:46:00Z,00000380,01000600,0000.53,0000.28,0000.31,-000.22,0000.08,-000.06,-000.07,0000.03,0000.08,23.2,00.0,0621.1,30.9
2020-01-27T01:47:00Z,00000380,01000600,-000.73,-000.50,-000.02,-000.10,-000.47,0000.19,0000.06,0000.05,-000.07,23.2,00.0,0621.1,30.9
2020-01-27T01:48:00Z,00000380,01000600,0000.45,0000.32,0000.01,-000.42,0000.42,0000.09,-000.03,0000.09,0000.05,23.2,00.0,0621.1,30.9
2020-01-27T01:49:00Z,00000380,01000600,0000.92,0000.36,0000.06,-000.12,0000.35,0000.05,0000.08,-000.17,0000.04,23.2,00.0,0621.1,30.9
2020-01-27T01:50:00Z,00000380,01000600,-001.71,0000.65,0000.38,0000.11,0000.37,0000.48,0000.05,0000.03,-000.02,23.2,00.0,0621.0,30.9
2020-01-27T01:51:00Z,00000380,01000600,-000.29,0000.41,-000.15,-000.22,-000.10,0000.16,-000.14,-000.25,-000.15,23.2,00.0,0621.0,30.9
2020-01-27T01:52:00Z,00000380,01000600,0001.64,0000.20,0000.42,-001.13,-000.28,0000.38,0000.09,0000.15,0000.07,23.2,00.0,0621.0,30.9
2020-01-27T01:53:00Z,00000380,01000600,0000.46,0000.53,0000.50,0000.09,0000.19,0000.09,0000.24,-000.01,0000.17,23.2,00.0,0621.0,30.9
2020-01-27T01:54:00Z,00000380,01000600,0000.70,0000.06,0000.21,0000.42,0000.75,-000.17,-000.01,0000.20,-000.00,23.2,00.0,0621.0,30.9
2020-01-27T01:55:00Z,00000380,01000600,0000.68,0000.22,-000.05,0000.29,0000.24,0000.37,0000.10,0000.13,0000.11,23.2,00.0,0620.9,30.9
2020-01-27T01:56:00Z,00000380,01000600,0000.54,-000.23,0000.85,-000.11,0000.40,0000.11,0000.03,-000.10,0000.09,23.3,00.0,0620.9,30.9
2020-01-27T01:57:00Z,00000380,41000600,,,,,,,,,,23.3,00.0,0620.8,30.9
2020-01-27T01:58:00Z,00000380,61000600,,,,,,,,,,23.4,00.0,0620.0,30.9
2020-01-27T01:59:00Z,00000380,21000600,,,,,,,,,,23.5,00.0,0620.0,30.9
2020-01-27T02:00:00Z,00000380,21000600,,,,,,,,,,23.5,00.0,0620.0,30.9
2020-01-27T02:01:00Z,00000380,21000600,,,,,,,,,,23.5,00.0,0620.0,30.9
2020-01-27T02:02:00Z,00000380,21000600,,,,,,,,,,23.5,00.0,0620.0,30.9
2020-01-27T02:03:00Z,00000380,61000600,,,,,,,,,,23.5,00.0,0619.9,30.9
2020-01-27T02:04:00Z,00000380,41000600,0000.11,0000.37,0000.18,-001.13,0000.24,0000.44,0000.04,-000.01,0000.00,23.3,00.0,0620.8,30.9
2020-01-27T02:05:00Z,00000380,01000600,0000.21,-000.75,-000.10,-000.46,0000.56,-000.24,0000.05,0000.02,0000.12,23.2,00.0,0620.9,30.9
2020-01-27T02:06:00Z,00000380,01000600,-000.18,0000.09,-000.41,-000.71,0000.43,0000.13,-000.10,-000.18,-000.15,23.2,00.0,0620.8,30.9
2020-01-27T02:07:00Z,00000380,01000600,0000.87,-000.12,0000.18,-000.68,0000.27,-000.05,0000.12,-000.05,-000.07,23.2,00.0,0620.8,30.9
2020-01-27T02:08:00Z,00000380,01000600,-000.12,0000.11,-000.11,-000.64,0000.08,0000.39,-000.12,0000.22,-000.01,23.2,00.0,0620.8,30.9
2020-01-27T02:09:00Z,00000380,01000600,0001.05,-000.24,-000.28,-000.40,0000.23,0000.30,0000.13,0000.15,0000.12,23.2,00.0,0620.8,30.9
2020-01-27T02:10:00Z,00000380,01000600,0000.08,0000.03,0000.03,0000.15,0000.59,0000.09,0000.03,-000.26,-000.01,23.3,00.0,0620.8,30.9
2020-01-27T02:11:00Z,00000380,01000600,0000.89,-000.52,-000.45,-000.32,0000.24,0000.16,0000.09,0000.32,0000.19,23.3,00.0,0620.8,30.9
2020-01-27T02:12:00Z,00000380,01000600,0000.33,-000.16,0000.02,-000.47,0000.10,0000.12,0000.10,-000.15,-000.09,23.3,00.0,0620.8,30.9
2020-01-27T02:13:00Z,00000380,01000600,0001.07,-000.13,0000.13,0000.58,0000.17,0000.19,-000.18,0000.21,0000.02,23.2,00.0,0620.8,30.9
2020-01-27T02:14:00Z,00000380,01000600,-000.29,-000.48,-000.10,0000.00,0000.17,-000.13,0000.21,-000.01,0000.14,23.2,00.0,0620.8,30.9
2020-01-27T02:15:00Z,00000380,01000600,-000.28,-000.43,0000.02,0000.25,0000.12,0000.24,-000.04,0000.18,-000.10,23.2,00.0,0620.8,30.9
2020-01-27T02:16:00Z,00000380,01000600,0000.50,-000.47,0000.15,-000.93,0000.33,0000.54,0000.00,-000.14,0000.04,23.2,00.0,0620.8,30.9
2020-01-27T02:17:00Z,00000380,01000600,0000.54,0000.32,0000.08,-000.68,0000.51,0000.04,-000.08,-000.09,-000.13,23.2,00.0,0620.8,30.9
2020-01-27T02:18:00Z,00000380,01000600,0000.70,-000.12,0000.35,-000.86,-000.35,-000.12,0000.20,0000.18,0000.11,23.2,00.0,0620.8,30.9
2020-01-27T02:19:00Z,00000380,01000600,0000.37,-000.28,-000.10,0000.66,-000.26,0000.60,-000.03,-000.15,0000.04,23.2,00.0,0620.8,30.9
2020-01-27T02:20:00Z,00000380,01000600,0000.37,-000.50,-000.10,0000.14,0000.48,0000.39,-000.16,0000.20,0000.03,23.2,00.0,0620.8,30.9
2020-01-27T02:21:00Z,00000380,01000600,0000.81,0000.03,0000.01,-000.73,0000.45,0000.31,0000.11,-000.12,-000.06,23.2,00.0,0620.8,30.9
2020-01-27T02:22:00Z,00000380,01000600,-000.24,0000.05,0000.06,-001.26,0000.32,0000.11,-000.12,-000.11,0000.08,23.2,00.0,0620.7,30.9
2020-01-27T02:23:00Z,00000380,01000600,-000.63,0000.18,0000.53,0000.44,0000.02,0000.47,0000.12,0000.00,-000.01,23.2,00.0,0620.8,30.9
2020-01-27T02:24:00Z,00000380,01000600,0000.85,0000.46,0000.27,0000.19,0000.13,0000.10,0000.05,0000.22,0000.06,23.3,00.0,0620.8,30.9
2020-01-27T02:25:00Z,00000380,01000600,0000.58,0000.20,0000.32,-000.37,0000.15,0000.79,-000.02,-000.04,-000.07,23.3,00.0,0620.8,30.9
2020-01-27T02:26:00Z,00000380,01000600,0000.47,-000.55,0000.08,-000.89,-000.17,-000.26,0000.07,0000.13,0000.10,23.3,00.0,0620.8,30.9
2020-01-27T02:27:00Z,00000380,01000600,-000.18,-000.33,-000.03,-000.18,0000.49,0000.56,0000.03,-000.14,0000.01,23.3,00.0,0620.8,30.9
2020-01-27T02:28:00Z,00000380,01000600,0000.71,0000.71,-000.17,-000.03,0000.57,-000.14,-000.05,0000.02,-000.01,23.3,00.0,0620.8,30.9
2020-01-27T02:29:00Z,00000380,01000600,0000.40,-000.05,-000.11,-001.05,-000.20,0000.22,0000.04,-000.02,-000.02,23.3,00.0,0620.8,30.9
2020-01-27T02:30:00Z,00000380,01000600,0000.44,0000.03,0000.01,-000.26,0000.11,0000.24,-000.08,-000.07,0000.01,23.3,00.0,0620.7,30.9
2020-01-27T02:31:00Z,00000380,01000600,0000.80,-000.41,-000.16,0000.72,0000.08,0000.06,0000.04,0000.04,-000.02,23.3,00.0,0620.7,30.9
2020-01-27T02:32:00Z,00000380,01000600,0000.08,-000.09,0000.14,0000.19,0000.13,0000.01,-000.13,0000.05,0000.05,23.3,00.0,0620.7,30.9
2020-01-27T02:33:00Z,00000380,01000600,0000.18,-000.11,-000.19,0000.61,0000.26,0000.12,0000.25,0000.18,0000.03,23.3,00.0,0620.7,30.9
2020-01-27T02:34:00Z,00000380,01000600,-001.01,-000.06,0000.22,-000.42,-000.02,-000.15,-000.01,0000.08,0000.11,23.3,00.0,0620.6,30.9
2020-01-27T02:35:00Z,00000380,01000600,-000.28,0000.41,0000.39,-000.50,0000.55,0000.35,0000.04,-000.12,-000.05,23.3,00.0,0620.6,30.9
2020-01-27T02:36:00Z,00000380,01000600,0001.02,0000.28,-000.11,-000.33,0000.57,0000.18,-000.12,-000.15,-000.04,23.3,00.0,0620.6,30.9
2020-01-27T02:37:00Z,00000380,01000600,0000.14,-000.23,0000.12,0000.19,0000.19,0000.02,0000.10,0000.20,0000.04,23.3,00.0,0620.5,30.9
2020-01-27T02:38:00Z,00000380,01000600,-000.03,0000.19,-000.27,-000.53,-000.01,0000.12,0000.18,0000.03,0000.25,23.3,00.0,0620.5,30.9
2020-01-27T02:39:00Z,00000380,01000600,0000.27,-000.53,0000.16,0000.20,0000.19,0000.08,-000.00,-000.06,-000.25,23.3,00.0,0620.5,30.9
2020-01-27T02:40:00Z,00000380,01000600,0001.21,0000.07,0000.17,0000.79,0000.18,-000.13,-000.05,0000.09,0000.02,23.3,00.0,0620.5,30.9
2020-01-27T02:41:00Z,00000380,01000600,-000.58,-000.14,0000.02,-000.29,-000.08,-000.04,0000.09,0000.16,0000.02,23.4,00.0,0620.5,30.9
2020-01-27T02:42:00Z,00000380,01000600,0000.81,-000.34,-000.28,-000.35,0000.22,-000.20,-000.02,-000.08,0000.03,23.4,00.0,0620.5,30.9
2020-01-27T02:43:00Z,00000380,01000600,0000.44,0000.25,0000.02,-000.49,-000.01,-000.07,-000.04,0000.16,0000.06,23.3,00.0,0620.5,30.9
2020-01-27T02:44:00Z,00000380,01000600,0001.07,0000.28,0000.09,0000.36,0000.45,0000.46,0000.03,-000.18,-000.04,23.3,00.0,0620.5,30.9
2020-01-27T02:45:00Z,00000380,01000600,-000.65,-000.41,0000.21,-000.36,0000.46,-000.03,-000.09,0000.03,-000.01,23.3,00.0,0620.5,30.9
2020-01-27T02:46:00Z,00000380,01000600,0000.47,0000.18,0000.28,-000.15,-000.06,0000.12,0000.12,0000.04,0000.07,23.3,00.0,0620.5,30.9
2020-01-27T02:47:00Z,00000380,01000600,-000.97,-000.37,-000.24,-000.34,0000.50,0000.21,-000.05,-000.14,-000.07,23.3,00.0,0620.5,30.9
2020-01-27T02:48:00Z,00000380,01000600,-000.10,0000.17,0000.08,0000.23,0000.09,-000.01,0000.05,0000.14,0000.11,23.3,00.0,0620.5,30.9
2020-01-27T02:49:00Z,00000380,01000600,0000.41,0000.05,-000.05,-000.34,0000.28,-000.22,-000.06,-000.13,-000.02,23.3,00.0,0620.5,30.9
2020-01-27T02:50:00Z,00000380,01000600,-000.20,-000.29,-000.68,-000.34,0000.03,-000.19,0000.13,0000.05,-000.01,23.3,00.0,0620.4,30.9
2020-01-27T02:51:00Z,00000380,01000600,0000.58,0000.32,0000.21,-000.31,0000.18,-000.19,-000.02,-000.03,-000.07,23.3,00.0,0620.4,30.9
2020-01-27T02:52:00Z,00000380,01000600,0000.70,0000.11,-000.22,0000.30,0000.22,0000.16,0000.08,0000.17,0000.22,23.3,00.0,0620.4,30.9
2020-01-27T02:53:00Z,00000380,01000600,0000.80,0000.82,0000.14,0000.94,0000.25,0000.34,0000.02,0000.07,0000.05,23.3,00.0,0620.4,30.9
2020-01-27T02:54:00Z,00000380,01000600,0000.35,-000.25,0000.02,-000.54,0000.18,-000.16,0000.07,0000.15,-000.02,23.3,00.0,0620.4,30.9
2020-01-27T02:55:00Z,00000380,01000600,0000.16,-000.12,-000.06,0000.63,0000.22,0000.29,0000.08,-000.06,0000.06,23.4,00.0,0620.4,30.9
2020-01-27T02:56:00Z,00000380,01000600,0000.47,-000.18,-000.04,-000.64,0000.48,-000.16,-000.08,-000.01,0000.00,23.4,00.0,0620.4,30.9
2020-01-27T02:57:00Z,00000380,41000600,,,,,,,,,,23.4,00.0,0620.4,30.9
2020-01-27T02:58:00Z,00000380,61000600,,,,,,,,,,23.5,00.0,0619.5,30.9
2020-01-27T02:59:00Z,00000380,21000600,,,,,,,,,,23.5,00.0,0619.5,30.9
2020-01-27T03:00:00Z,00000380,21000600,,,,,,,,,,23.6,00.0,0619.5,30.9
2020-01-27T03:01:00Z,00000380,21000600,,,,,,,,,,23.6,00.0,0619.5,30.9
2020-01-27T03:02:00Z,00000380,21000600,,,,,,,,,,23.6,00.0,0619.5,30.9
2020-01-27T03:03:00Z,00000380,61000600,,,,,,,,,,23.6,00.0,0619.4,30.9
2020-01-27T03:04:00Z,00000380,41000600,0000.38,-000.37,0000.90,0000.81,0000.20,0000.27,0000.24,0000.16,0000.21,23.4,00.0,0620.2,30.9
2020-01-27T03:05:00Z,00000380,01000600,-000.26,0000.08,0000.59,-000.17,0000.64,-000.24,-000.09,-000.19,0000.00,23.4,00.0,0620.2,30.9
2020-01-27T03:06:00Z,00000380,01000600,0001.60,-000.53,-000.04,0001.26,0000.22,-000.08,0000.01,-000.09,-000.09,23.3,00.0,0620.2,30.9
2020-01-27T03:07:00Z,00000380,01000600,-000.03,0000.13,0000.56,0000.07,0000.34,0000.03,-000.02,0000.28,0000.01,23.3,00.0,0620.1,30.9
2020-01-27T03:08:00Z,00000380,01000600,0000.58,-000.26,0000.30,-000.20,-000.04,-000.10,0000.04,-000.10,0000.03,23.4,00.0,0620.1,30.9
2020-01-27T03:09:00Z,00000380,01000600,0000.62,0000.30,-000.33,0001.07,-000.02,-000.41,0000.16,0000.19,0000.11,23.3,00.0,0620.2,30.9
2020-01-27T03:10:00Z,00000380,01000600,0000.38,0000.36,-000.01,0000.52,0000.31,0000.13,-000.21,-000.05,0000.07,23.3,00.0,0620.2,30.9